Willard, MO

3:31 PM CST on February 25, 2017 (GMT -0600)
Springfield-Branson Regional

Weather History for KSGF - August, 2013

Change the Weather History Date:

Thursday, August 22, 2013

  Actual Average Record
Temperature  
Mean Temperature 79 °F 77 °F  
Max Temperature 90 °F 89 °F 102 °F (1983)
Min Temperature 68 °F 66 °F 50 °F (1950)
Degree Days  
Heating Degree Days 0 0  
Month to date heating degree days 0 0  
Since 1 June heating degree days 14 9  
Since 1 July heating degree days 0 0  
Cooling Degree Days 14 12  
Month to date cooling degree days 212 298  
Year to date cooling degree days 996 1086  
Since 1 June cooling degree days 869 971  
Growing Degree Days 30 (Base 50)    
Moisture  
Dew Point 67 °F    
Average Humidity 68    
Maximum Humidity 90    
Minimum Humidity 46    
Precipitation  
Precipitation 0.00 in 0.11 in 3.26 in (1985)
Month to date precipitation 5.84 2.38  
Year to date precipitation 38.15 28.94  
Snow  
Snow 0.00 in - - ()
Month to date snowfall 0.0  
Since 1 June snowfall 0.0  
Since 1 July snowfall 0.0  
Snow Depth 0.00 in    
Sea Level Pressure  
Sea Level Pressure 30.07 in    
Wind  
Wind Speed 5 mph (SSE)    
Max Wind Speed 10 mph    
Max Gust Speed 14 mph    
Visibility 10 miles    
Events      
T = Trace of Precipitation, MM = Missing Value Source: NWS Daily Summary

Daily Weather History Graph

Daily Weather History Graph

Search for Another Location

Airport or City:

Trip Planner

Search our weather history database for the weather conditions in past years. The results will help you decide how hot, cold, wet, or windy it might be!

Date:

Astronomy

Aug. 22, 2013 Rise Set
Actual Time 6:36 AM CDT 7:55 PM CDT
Civil Twilight 6:08 AM CDT 8:23 PM CDT
Nautical Twilight 5:36 AM CDT 8:55 PM CDT
Astronomical Twilight 5:02 AM CDT 9:29 PM CDT
Moon 8:44 PM CDT (8/22) 8:21 AM CDT (8/22)
Length of Visible Light 14h 14m
Length of Day
13h 19m
Waning Gibbous, 96% of the Moon is Illuminated
Aug 22
Waning Gibbous
Aug 28
Last Quarter
Sep 5
New
Sep 12
First Quarter
Sep 19
Full

Hourly Weather History & Observations

Time (CDT) Temp. Heat Index Dew Point Humidity Pressure Visibility Wind Dir Wind Speed Gust Speed Precip Events Conditions
12:52 AM 72.0 °F - 66.9 °F 84% 30.07 in 10.0 mi SE 5.8 mph - N/A   Clear
1:52 AM 72.0 °F - 66.9 °F 84% 30.07 in 10.0 mi SSE 6.9 mph - N/A   Clear
2:52 AM 70.0 °F - 66.0 °F 87% 30.07 in 10.0 mi South 3.5 mph - N/A   Clear
3:52 AM 70.0 °F - 66.0 °F 87% 30.07 in 10.0 mi SE 3.5 mph - N/A   Clear
4:52 AM 69.1 °F - 66.0 °F 90% 30.06 in 10.0 mi SSE 4.6 mph - N/A   Clear
5:52 AM 70.0 °F - 66.0 °F 87% 30.08 in 10.0 mi South 5.8 mph - N/A   Clear
6:52 AM 69.1 °F - 66.0 °F 90% 30.09 in 8.0 mi SSE 8.1 mph - N/A   Clear
7:52 AM 71.1 °F - 66.9 °F 87% 30.12 in 10.0 mi South 5.8 mph - N/A   Clear
8:52 AM 73.9 °F - 66.9 °F 79% 30.12 in 10.0 mi South 6.9 mph - N/A   Clear
9:52 AM 80.1 °F 82.7 °F 68.0 °F 67% 30.11 in 10.0 mi SSW 10.4 mph - N/A   Clear
10:52 AM 82.0 °F 84.9 °F 68.0 °F 62% 30.11 in 10.0 mi SSW 6.9 mph - N/A   Clear
11:52 AM 84.9 °F 88.8 °F 69.1 °F 59% 30.10 in 10.0 mi South 4.6 mph - N/A   Clear
12:52 PM 87.1 °F 89.2 °F 66.0 °F 49% 30.08 in 10.0 mi WSW 5.8 mph - N/A   Clear
1:52 PM 88.0 °F 90.3 °F 66.0 °F 48% 30.07 in 10.0 mi NW 5.8 mph - N/A   Scattered Clouds
2:52 PM 88.0 °F 89.3 °F 64.0 °F 45% 30.06 in 10.0 mi NW 6.9 mph - N/A   Clear
3:52 PM 87.1 °F 88.3 °F 64.0 °F 46% 30.05 in 10.0 mi North 5.8 mph - N/A   Mostly Cloudy
4:52 PM 88.0 °F 89.3 °F 64.0 °F 45% 30.04 in 10.0 mi North 4.6 mph - N/A   Mostly Cloudy
5:52 PM 88.0 °F 90.3 °F 66.0 °F 48% 30.03 in 10.0 mi East 6.9 mph - N/A   Overcast
6:52 PM 84.9 °F 88.2 °F 68.0 °F 57% 30.02 in 10.0 mi East 4.6 mph - N/A   Clear
7:52 PM 82.9 °F 85.4 °F 66.9 °F 58% 30.02 in 10.0 mi East 4.6 mph - N/A   Clear
8:52 PM 77.0 °F - 68.0 °F 74% 30.03 in 10.0 mi Calm Calm - N/A   Clear
9:52 PM 75.9 °F - 66.9 °F 74% 30.05 in 10.0 mi SE 3.5 mph - N/A   Clear
10:52 PM 73.9 °F - 66.9 °F 79% 30.06 in 10.0 mi Calm Calm - N/A   Clear
11:52 PM 73.0 °F - 66.9 °F 81% 30.06 in 10.0 mi SE 4.6 mph - N/A   Clear